Regional Weather Roundup
Issued by NWS

Home | Current Version | Previous Version | Graphics & Text | Print | Product List | Glossary On
Versions: 1 2 3 4 5 6 7 8 9 10 11 12 13 14 15 16 17 18 19 20 21 22 23 24 25 26 27 28 29 30 31 32 33 34 35 36 37 38 39 40 41 42 43 44 45 46 47 48 49 50
000
ASUS43 KLSX 252307
RWRMO

WEATHER SUMMARY FOR MISSOURI
NATIONAL WEATHER SERVICE SPRINGFIELD MO
600 PM CDT FRI MAY 25 2018

NOTE: "FAIR" INDICATES FEW OR NO CLOUDS BELOW 12,000 FEET WITH NO
       SIGNIFICANT WEATHER AND/OR OBSTRUCTIONS TO VISIBILITY.
       CURRENT SKY AND/OR WEATHER CONDITIONS ARE NOT AVAILABLE FOR
       CHILLICOTHE AND FARMINGTON.

MOZ001>031-035>038-043-044-053-054-260000-
...NORTHERN AND WESTERN MISSOURI...

CITY           SKY/WX    TMP DP  RH WIND       PRES   REMARKS
KANSAS CTY INT MOSUNNY   83  67  58 SW7       29.80F
KANSAS C DTWN  CLOUDY    84  65  52 SW5       29.79F
LEE`S SUMMIT   CLOUDY    83  68  60 W7        29.81F
ST JOSEPH      MOSUNNY   90  62  39 SW10      29.77F HX  90
CHILLICOTHE      N/A     85  66  53 MISG      29.79F
KIRKSVILLE     SUNNY     83  66  56 W7        29.80F

$$
MOZ066>068-077>081-088>096-101>105-260000-
...SOUTHWEST MISSOURI...

CITY           SKY/WX    TMP DP  RH WIND       PRES   REMARKS
SPRINGFIELD    CLOUDY    83  68  60 NW8       29.84R
JOPLIN         MOSUNNY   83  67  58 CALM      29.85S
BRANSON        PTSUNNY   79  63  57 SW15G23   29.87R

$$
MOZ032>034-039>042-045>050-055>058-069>072-260000-
...CENTRAL MISSOURI...

CITY           SKY/WX    TMP DP  RH WIND       PRES   REMARKS
COLUMBIA       SUNNY     82  68  62 NW5       29.82F
JEFFERSON CITY MOSUNNY   81  67  62 W5        29.80F
ROLLA          MOSUNNY   80  70  71 S6        29.84F
SEDALIA        SUNNY     80  68  66 SW3       29.82F
WHITEMAN AFB   CLOUDY    80  69  68 W3        29.77F
WARRENSBURG    CLOUDY    77  68  73 S3        29.81F
OSAGE BEACH    MOSUNNY   82  70  66 W6        29.83F

$$
MOZ051-052-059>065-260000-
...EAST CENTRAL MISSOURI...

CITY           SKY/WX    TMP DP  RH WIND       PRES   REMARKS
ST LOUIS INTL  PTSUNNY   81  65  58 SW12      29.82S
SPIRIT OF STL  PTSUNNY   82  68  62 S10       29.80F
ST CHARLES     MOSUNNY   82  68  62 S14       29.79S

$$
MOZ072>076-082>087-097>100-106>115-260000-
...SOUTH CENTRAL AND SOUTHEAST MISSOURI...

CITY           SKY/WX    TMP DP  RH WIND       PRES   REMARKS
CAPE GIRARDEAU FAIR      75  68  78 E7        29.86F
FARMINGTON     CLOUDY    74  67  78 S12       29.87F
POPLAR BLUFF   FAIR      78  73  84 E3        29.82F
WEST PLAINS    PTSUNNY   75  66  73 S5        29.88S

$$




USA.gov is the U.S. government's official web portal to all federal, state and local government web resources and services.